Regional Weather Roundup
Issued by NWS Cleveland, OH

Home | Current Version | Previous Version | Text Only | Print | Product List | Glossary On
Versions: 1 2 3 4 5 6 7 8 9 10 11 12 13 14 15 16 17 18 19 20 21 22 23 24 25 26 27 28 29 30 31 32 33 34 35 36 37 38 39 40 41 42 43 44 45 46 47 48 49 50
000
ASUS41 KCLE 260412
RWRCLE
OHIO REGIONAL WEATHER ROUNDUP
NATIONAL WEATHER SERVICE WILMINGTON, OH
1200 AM EDT THU APR 26 2018

NOTE: "FAIR" INDICATES FEW OR NO CLOUDS BELOW 12,000 FEET WITH NO
SIGNIFICANT WEATHER AND/OR OBSTRUCTIONS TO VISIBILITY.

OHZ001>008-015>018-024>027-034-035-043-044-260500-
   NORTHWEST OHIO

CITY           SKY/WX    TMP DP  RH WIND       PRES   REMARKS
DEFIANCE       FAIR      46  35  65 NE5       29.95S
FINDLAY        FAIR      46  39  76 CALM      29.94R
TOLEDO EXPRESS FAIR      45  42  89 E6        29.95R
TOLEDO EXEC    FAIR      42  39  89 E6        29.96S
LIMA           FAIR      45  38  76 NW3       29.93S
$$

OHZ009>014-019>023-028>033-038-089-260500-
   NORTHEAST OHIO

CITY           SKY/WX    TMP DP  RH WIND       PRES   REMARKS
CLE-HOPKINS    MOCLDY    41  37  86 N12       29.98F
CLE-LAKEFRONT  CLOUDY    41  35  79 N9        29.95F
CUY CO. ARPT   NOT AVBL
LORAIN-ELYRIA  CLOUDY    41  34  76 NE15      29.96F
ASHTABULA      CLOUDY    37  35  92 N10       29.93F
AKRON-CANTON   MOCLDY    40  35  83 NW3       29.93F
WOOSTER        CLOUDY    41  39  93 N5        29.94F
MANSFIELD      FAIR      41  39  93 NE6       29.93F
YOUNGSTOWN     CLOUDY    40  36  86 NW9       29.91F
$$

OHZ042-051>053-060>062-070>072-077>081-260500-
  SOUTHWEST OHIO

CITY           SKY/WX    TMP DP  RH WIND       PRES   REMARKS
CINC-COVINGTON CLOUDY    54  40  59 NW10      29.93S
CINC-LUNKEN    FAIR      48  47  96 CALM      29.93F
HAMILTON       FAIR      52  38  58 N8        29.94S
DAYTON         FAIR      48  38  68 NW9       29.94S
WRIGHT-PAT AFB FAIR      51  37  59 NW8       29.92F
DAYTON GENERAL FAIR      53  36  52 N10       29.93S
WILMINGTON     FAIR      49  48  97 CALM      29.91F
$$

OHZ036-037-039>041-045>050-054>059-063>069-073>076-082>088-260500-
  CENTRAL AND SOUTHEAST OHIO

CITY           SKY/WX    TMP DP  RH WIND       PRES   REMARKS
COLUMBUS       FAIR      50  44  80 E6        29.90F
OSU AIRPORT    FAIR      49  42  77 N3        29.90F
BOLTON FIELD   FAIR      43  42  95 CALM      29.90F
RICKENBACK AFB FAIR      45  44  95 CALM      29.90F
NEWARK         FAIR      48  45  89 NE3       29.91S
MARION         FAIR      42  39  89 E6        29.93S
LANCASTER      FAIR      43  42  97 CALM      29.91F
ZANESVILLE     FAIR      45  41  86 CALM      29.92F
NEW PHILLY     FAIR      41  39  93 CALM      29.93F FOG
$$



USA.gov is the U.S. government's official web portal to all federal, state and local government web resources and services.